Showing default

LEMUR 2 UNTITLED-SC, 63351

Orbit data source: Space-Track

LEMUR 2 UNTITLED-SC, 63351 is a payload satellite owned by OroraTech (US) in SSO that was launched on Wed, 26 Mar 2025 UTC via an ELECTRON launch vehicle from the Rocket Lab Launch Complex (RLLC). Payload-class satellites include a variety of spacecraft equipped with specific instruments for various scientific and technological missions. These include communications satellites like Starlink; space stations such as the ISS; scientific satellites like the Hubble; Earth observation satellites from companies like Planet Labs, Umbra, and HawkEye 360; GPS; miniature CubeSats for education and research; and military/defense satellites.

Loading next visibility...
Identifier
63351, 2025-061A
Orbit
SSO
Last TLE update
18 hours ago
Origin
Manufacturer
Spire/Glasgow
Mission
Operational Commercial Imaging
Bus & Motor
CUBESAT 6U, Unknown motor
Mass
~15 kg wet, ~15 kg dry
Launch date (UTC)
2025-03-26 (3 months ago)
Launch vehicle
ELECTRON
Launch site
Rocket Lab Launch Complex (RLLC)
Object type
Payload
Rocket body
Debris
Shape & HBR
Box + 2 Pan, 0.4 m
Radar Cross Section
0.065 m², Medium (>0.1 m² and < 1m²)

Expand to show TLE details & history

TLE from 18 hours ago
0 LEMUR 2 UNTITLED-SC
1 63351U 25061A   25183.39697065  .00003592  00000-0  22537-3 0  9997
2 63351  97.5219 158.1871 0021226  32.9397 327.3150 15.09759590 14747
Epoch: 2025-07-02T09:31Z
TLE epoch observation values (Epoch: 2025-07-02T09:31:38.264Z)
Latitude
Longitude
94.599°
Altitude
527.66 km
Speed
7.606 km/s
True Right ascension
10h 32m 44s
True Declination
0° 00' 00"
Sunlit
Object was in daylight at epoch
Visualization orbit readout
Latitude
7.97018°
Longitude
94.2624°
Altitude
525.722 km
Speed
7.608 km/s
Apparent Right ascension
07h 38m 55s
Apparent Declination
-25° 46' 37"
Sunlit
Object is in daylight
Visualization observer readout
Local Sidereal Time
14:48:42
Azimuth
259.428° W
Elevation
-29.082°
Doppler factor
1
Orbital elements
Apogee altitude
548.59 km
Perigee altitude
519.247 km
Semi-major axis
6,912.055 km
Eccentricity
0.00212
Inclination
97.5219°
RAAN
158.1871°
Arg. of periapsis
32.9397°
True anomaly
Unknown
Mean anomaly
327.315°
Eccentric anomaly
Unknown
Mean motion
3.77687 °/min
Orbital period
95.32 mins
BSTAR
0.00022537
Loading maneuver chart data...
Loading SW <> Apogee altitude chart data...
Loading historical data...
Loading historical data...
Loading historical data...
Loading historical data...
Loading historical data...
Loading historical data...
Loading historical data...

LEMUR 2 UNTITLED-SC Visibility forecast

Observer location: undefined°, undefined°

Span
Click to sort rows by Start time (UTC) header in descending order
Start Az.
Max El. time (UTC)
Max El. Az.
Max El.
End time (UTC)
End Az.
5 mins2025-07-03 11:33:34.776Z346.711° N2025-07-03 11:35:34.776Z270.93° WNW37.038°2025-07-03 11:38:34.776Z212.51° SW
5 mins2025-07-03 22:15:34.776Z154.337° SSE2025-07-03 22:17:34.776Z56.43° ENE43.272°2025-07-03 22:20:34.776Z353.491° N
|